Powrót do katalogu

STARLINK-4707

AktywnyŁącznośćVLEO
NORAD 53721·PAYLOAD·🇺🇸 United States

Wystrzelony Sep 5, 2022 z Cape Canaveral Space Force Station

Loading…

Następne Przeloty (najbliższe 24 godziny)

TLE

ŚwieżeSource: CelesTrak SupGP

Epoka: Sep 15, 2026, 02:55 UTC

1 53721C 22107X   26258.12201389  .00014163  00000+0  41836-3 0  2586
2 53721  53.1572 110.6281 0001157  88.0515 112.4354 15.34390367    15

Śledź STARLINK-4707 w czasie rzeczywistym z AllMySat

Download on the App Store